GW2326 Weather Reports


time (UTC)temp
C
wind
direction
speed
KPH
gust
KPH
rain 1hr
cm
rain 24hr
cm
rain mn
cm
humidity
%
barometer
mb
20260506114614 11 28 19.3 27.4 0.00 0.00 0.00 85 1014.1
20260506114050 12 54 19.3 27.4 0.00 0.00 0.00 84 1014.1
20260506113551 12 44 19.3 27.4 0.00 0.00 0.00 84 1014.0
20260506113054 12 51 20.9 30.6 0.00 0.00 0.00 84 1013.9
20260506112550 12 31 20.9 30.6 0.00 0.00 0.00 83 1013.8
20260506112051 12 34 16.1 30.6 0.00 0.00 0.00 83 1013.7
20260506111553 12 360 19.3 29.0 0.00 0.00 0.00 84 1013.3
20260506111051 12 360 20.9 29.0 0.00 0.00 0.00 84 1013.3
20260506110550 12 360 14.5 24.1 0.00 0.00 0.00 84 1013.2
20260506110058 12 360 14.5 22.5 0.00 0.00 0.00 84 1013.2
20260506105554 12 360 14.5 22.5 0.00 0.00 0.00 84 1013.2
20260506105051 12 360 16.1 25.7 0.00 0.00 0.00 84 1013.3
20260506104554 12 360 17.7 25.7 0.00 0.00 0.00 84 1013.1
20260506104050 12 360 16.1 24.1 0.00 0.00 0.00 83 1013.1
20260506103551 12 360 14.5 20.9 0.00 0.00 0.00 83 1012.9
20260506103057 12 360 12.9 20.9 0.00 0.00 0.00 83 1013.2
20260506102551 12 360 16.1 22.5 0.00 0.00 0.00 83 1013.0
20260506102052 12 360 14.5 24.1 0.00 0.00 0.00 83 1013.0
20260506101605 12 360 14.5 25.7 0.00 0.00 0.00 83 1013.1
20260506101049 12 360 19.3 25.7 0.00 0.00 0.00 83 1012.7
20260506100549 12 360 16.1 24.1 0.00 0.00 0.00 83 1012.8
20260506100050 12 360 16.1 29.0 0.00 0.00 0.00 83 1013.1
20260506095547 12 360 17.7 29.0 0.00 0.00 0.00 82 1012.8
20260506095049 12 360 17.7 27.4 0.00 0.00 0.00 82 1012.8
20260506094550 12 360 16.1 30.6 0.00 0.00 0.00 82 1012.9
20260506094049 12 360 17.7 30.6 0.00 0.00 0.00 82 1012.8
20260506093551 12 360 17.7 29.0 0.00 0.00 0.00 82 1012.7
20260506093109 12 360 20.9 29.0 0.00 0.00 0.00 81 1012.4
20260506092551 13 360 19.3 29.0 0.00 0.00 0.00 81 1012.3
20260506092051 13 360 22.5 29.0 0.00 0.00 0.00 81 1012.1
20260506091553 13 360 17.7 29.0 0.00 0.00 0.00 81 1012.2
20260506091050 13 360 19.3 29.0 0.00 0.00 0.00 81 1012.1
20260506090550 13 360 20.9 29.0 0.00 0.00 0.00 81 1011.7
20260506090106 13 360 17.7 27.4 0.00 0.00 0.00 81 1011.7
20260506085550 13 360 19.3 27.4 0.00 0.00 0.00 80 1012.1
20260506085050 13 360 20.9 27.4 0.00 0.00 0.00 80 1012.1
20260506084555 13 360 17.7 22.5 0.00 0.00 0.00 79 1011.9
20260506084050 13 360 16.1 24.1 0.00 0.00 0.00 79 1012.1
20260506083550 13 360 16.1 25.7 0.00 0.00 0.00 79 1012.1
20260506083053 14 360 16.1 27.4 0.00 0.00 0.00 79 1012.3
20260506082554 14 360 19.3 27.4 0.00 0.00 0.00 78 1012.2
20260506082050 14 360 17.7 27.4 0.00 0.00 0.00 78 1012.0
20260506081552 14 360 17.7 27.4 0.00 0.00 0.00 77 1011.9
20260506081051 15 360 14.5 25.7 0.00 0.00 0.00 77 1012.0
20260506080551 15 360 16.1 27.4 0.00 0.00 0.00 76 1012.0
20260506073111 16 360 14.5 24.1 0.00 0.00 0.00 74 1012.2
20260506072554 16 360 16.1 24.1 0.00 0.00 0.00 74 1012.3
20260506072054 16 360 16.1 24.1 0.00 0.00 0.00 74 1012.2
20260506071600 16 360 14.5 20.9 0.00 0.00 0.00 74 1012.4
20260506071051 16 360 14.5 20.9 0.00 0.00 0.00 74 1012.5
20260506070551 16 360 14.5 20.9 0.00 0.00 0.00 74 1012.4
20260506070111 16 360 12.9 19.3 0.00 0.00 0.00 74 1012.3
20260506062051 18 360 6.4 9.7 0.00 0.00 0.00 70 1011.6
20260506061603 18 360 6.4 9.7 0.00 0.00 0.00 69 1011.5
20260506061051 18 360 6.4 9.7 0.00 0.00 0.00 69 1011.5
20260506060550 18 360 6.4 9.7 0.00 0.00 0.00 68 1011.5
20260506051051 20 76 12.9 19.3 0.00 0.00 0.00 64 1011.1
20260506050551 20 65 12.9 17.7 0.00 0.00 0.00 64 1011.2
20260506045051 20 73 14.5 27.4 0.00 0.00 0.00 63 1011.0
20260506044611 21 73 17.7 27.4 0.00 0.00 0.00 62 1010.8
20260506044051 21 70 17.7 22.5 0.00 0.00 0.00 62 1010.7
20260506043553 21 15 14.5 20.9 0.00 0.00 0.00 62 1010.7
20260506043054 21 72 14.5 17.7 0.00 0.00 0.00 62 1010.5
20260506042551 21 58 11.3 19.3 0.00 0.00 0.00 62 1010.7
20260506042051 21 50 12.9 19.3 0.00 0.00 0.00 62 1010.6
20260506041606 21 360 12.9 17.7 0.00 0.00 0.00 62 1010.5
20260506041052 21 360 12.9 17.7 0.00 0.00 0.00 62 1010.7
20260506040550 22 360 8.0 14.5 0.00 0.00 0.00 61 1010.6
20260506035550 22 360 9.7 22.5 0.00 0.00 0.00 61 1010.5
20260506035052 22 360 12.9 24.1 0.00 0.00 0.00 60 1010.4
20260506034601 22 360 16.1 27.4 0.00 0.00 0.00 59 1010.5
20260506034051 23 360 17.7 27.4 0.00 0.00 0.00 58 1010.5
20260506033551 23 360 19.3 25.7 0.00 0.00 0.00 57 1010.5
20260506033057 23 360 17.7 22.5 0.00 0.00 0.00 56 1010.5
20260506032551 23 360 17.7 22.5 0.00 0.00 0.00 53 1010.4
20260506032051 24 40 14.5 19.3 0.00 0.00 0.00 50 1010.3
20260506031600 24 54 12.9 19.3 0.00 0.00 0.00 48 1010.1
20260506031051 25 58 11.3 16.1 0.00 0.00 0.00 44 1010.0
20260506030550 25 38 9.7 12.9 0.00 0.00 0.00 41 1010.1
20260506030056 25 22 4.8 8.0 0.00 0.00 0.00 39 1010.1
20260506025550 25 15 3.2 9.7 0.00 0.00 0.00 39 1010.0
20260506025050 25 351 4.8 14.5 0.00 0.00 0.00 39 1009.8
20260506024608 26 342 8.0 14.5 0.00 0.00 0.00 40 1009.7
20260506024050 26 319 9.7 14.5 0.00 0.00 0.00 39 1009.8
20260506023551 26 58 6.4 9.7 0.00 0.00 0.00 40 1009.7
20260506023056 26 5 4.8 9.7 0.00 0.00 0.00 37 1009.5
20260506022551 27 336 6.4 9.7 0.00 0.00 0.00 36 1009.4
20260506022051 27 320 8.0 9.7 0.00 0.00 0.00 35 1009.3
20260506021552 27 325 6.4 9.7 0.00 0.00 0.00 36 1009.3
20260506021055 27 328 8.0 9.7 0.00 0.00 0.00 37 1009.3
20260506020550 27 324 8.0 9.7 0.00 0.00 0.00 37 1009.3
20260506020118 27 319 6.4 12.9 0.00 0.00 0.00 37 1009.3
20260506015553 27 323 6.4 12.9 0.00 0.00 0.00 36 1009.3
20260506015051 27 325 8.0 14.5 0.00 0.00 0.00 35 1009.2
20260506014553 27 325 11.3 16.1 0.00 0.00 0.00 34 1009.2
20260506014050 28 330 12.9 17.7 0.00 0.00 0.00 34 1009.0
20260506013550 28 321 14.5 17.7 0.00 0.00 0.00 33 1009.0
20260506013049 28 329 14.5 17.7 0.00 0.00 0.00 32 1008.8
20260506012550 28 321 14.5 17.7 0.00 0.00 0.00 33 1008.8
20260506012051 28 323 12.9 17.7 0.00 0.00 0.00 33 1008.7
20260506011551 28 330 14.5 17.7 0.00 0.00 0.00 33 1008.6
20260506011053 28 320 12.9 16.1 0.00 0.00 0.00 34 1008.7
20260506010551 29 319 11.3 14.5 0.00 0.00 0.00 33 1008.5
20260506010057 30 317 11.3 14.5 0.00 0.00 0.00 32 1008.3
20260506005551 30 302 9.7 12.9 0.00 0.00 0.00 31 1008.0
20260506005050 30 313 8.0 11.3 0.00 0.00 0.00 31 1007.9
20260506004557 30 300 6.4 14.5 0.00 0.00 0.00 29 1007.8
20260506004051 30 275 9.7 16.1 0.00 0.00 0.00 29 1007.7
20260506003551 31 296 11.3 20.9 0.00 0.00 0.00 28 1007.8
20260506003057 31 295 14.5 20.9 0.00 0.00 0.00 28 1007.7
20260506002550 31 311 11.3 17.7 0.00 0.00 0.00 28 1007.7
20260506002051 31 309 11.3 16.1 0.00 0.00 0.00 30 1007.7
20260506001607 31 301 9.7 14.5 0.00 0.00 0.00 29 1007.6
20260506001051 31 302 4.8 11.3 0.00 0.00 0.00 28 1007.5
20260506000555 32 290 3.2 6.4 0.00 0.00 0.00 27 1007.3
20260506000125 32 279 1.6 6.4 0.00 0.00 0.00 26 1007.4
20260505235551 32 278 1.6 9.7 0.00 0.00 0.00 25 1007.3
20260505235051 32 320 3.2 17.7 0.00 0.00 0.00 24 1007.3
20260505234615 32 270 3.2 17.7 0.00 0.00 0.00 24 1007.3
20260505234055 32 284 8.0 17.7 0.00 0.00 0.00 23 1007.3
20260505233553 32 255 6.4 22.5 0.00 0.00 0.00 23 1007.3
20260505233057 32 296 9.7 22.5 0.00 0.00 0.00 22 1007.3
20260505232550 33 274 16.1 22.5 0.00 0.00 0.00 23 1007.3
20260505232051 33 296 12.9 22.5 0.00 0.00 0.00 22 1007.3
20260505231600 33 286 6.4 20.9 0.00 0.00 0.00 22 1007.3
20260505231050 33 290 6.4 24.1 0.00 0.00 0.00 22 1007.1
20260505230550 33 284 6.4 24.1 0.00 0.00 0.00 22 1007.2
20260505230054 33 264 6.4 25.7 0.00 0.00 0.00 23 1007.3
20260505225551 33 304 17.7 25.7 0.00 0.00 0.00 22 1007.3
20260505225050 33 274 12.9 33.8 0.00 0.00 0.00 23 1007.3
20260505224557 33 294 24.1 33.8 0.00 0.00 0.00 23 1007.4
20260505224054 33 306 12.9 29.0 0.00 0.00 0.00 23 1007.4
20260505223551 33 295 11.3 27.4 0.00 0.00 0.00 23 1007.4
20260505223101 33 286 11.3 24.1 0.00 0.00 0.00 22 1007.4
20260505222551 33 286 9.7 25.7 0.00 0.00 0.00 22 1007.4
20260505222052 33 290 11.3 25.7 0.00 0.00 0.00 23 1007.4
20260505221600 33 295 9.7 24.1 0.00 0.00 0.00 22 1007.4
20260505221051 33 291 11.3 24.1 0.00 0.00 0.00 22 1007.4
20260505220550 33 294 12.9 24.1 0.00 0.00 0.00 22 1007.2
20260505220106 33 295 9.7 33.8 0.00 0.00 0.00 22 1007.3
20260505215552 33 315 11.3 33.8 0.00 0.00 0.00 23 1007.4
20260505215052 33 297 17.7 33.8 0.00 0.00 0.00 22 1007.4
20260505214601 33 304 20.9 35.4 0.00 0.00 0.00 22 1007.5
20260505214051 33 304 22.5 35.4 0.00 0.00 0.00 22 1007.5
20260505213550 33 295 19.3 32.2 0.00 0.00 0.00 23 1007.6
20260505213053 33 307 11.3 32.2 0.00 0.00 0.00 23 1007.6
20260505212552 33 258 17.7 32.2 0.00 0.00 0.00 24 1007.7
20260505212051 33 301 14.5 33.8 0.00 0.00 0.00 24 1007.7
20260505211629 32 304 20.9 33.8 0.00 0.00 0.00 24 1007.8
20260505211054 32 279 24.1 33.8 0.00 0.00 0.00 24 1008.0
20260505210550 32 285 19.3 35.4 0.00 0.00 0.00 26 1008.0
20260505210056 32 308 16.1 35.4 0.00 0.00 0.00 25 1008.0
20260505205552 32 321 24.1 35.4 0.00 0.00 0.00 24 1008.1
20260505205050 32 306 27.4 35.4 0.00 0.00 0.00 24 1007.9
20260505204613 32 312 19.3 33.8 0.00 0.00 0.00 24 1008.1
20260505204050 32 238 12.9 30.6 0.00 0.00 0.00 28 1008.0
20260505203550 32 315 8.0 29.0 0.00 0.00 0.00 28 1008.1
20260505203055 32 313 20.9 29.0 0.00 0.00 0.00 28 1008.0
20260505202551 32 307 19.3 29.0 0.00 0.00 0.00 26 1008.1
20260505202051 32 220 11.3 30.6 0.00 0.00 0.00 28 1008.1
20260505201554 32 305 19.3 30.6 0.00 0.00 0.00 30 1008.3
20260505201051 32 286 17.7 29.0 0.00 0.00 0.00 30 1008.3
20260505200551 32 309 11.3 17.7 0.00 0.00 0.00 29 1008.4
20260505200053 32 281 8.0 20.9 0.00 0.00 0.00 30 1008.3
20260505195548 32 280 6.4 20.9 0.00 0.00 0.00 29 1008.4
20260505195045 31 285 12.9 29.0 0.00 0.00 0.00 32 1008.3
20260505194552 31 319 16.1 29.0 0.00 0.00 0.00 31 1008.4
20260505194047 31 285 16.1 29.0 0.00 0.00 0.00 30 1008.4
20260505193550 31 301 16.1 27.4 0.00 0.00 0.00 32 1008.5
20260505193052 32 271 4.8 19.3 0.00 0.00 0.00 34 1008.6
20260505192548 31 315 9.7 19.3 0.00 0.00 0.00 34 1008.7
20260505192048 31 287 6.4 27.4 0.00 0.00 0.00 37 1008.8
20260505191552 31 196 8.0 27.4 0.00 0.00 0.00 40 1008.9
20260505191048 31 300 11.3 24.1 0.00 0.00 0.00 41 1008.9
20260505190547 31 277 8.0 24.1 0.00 0.00 0.00 42 1009.1
20260505190103 30 263 11.3 24.1 0.00 0.00 0.00 44 1009.1
20260505185547 30 315 11.3 20.9 0.00 0.00 0.00 44 1009.0
20260505185049 30 269 4.8 20.9 0.00 0.00 0.00 44 1008.9
20260505184553 30 261 8.0 20.9 0.00 0.00 0.00 43 1009.2
20260505184050 30 279 8.0 29.0 0.00 0.00 0.00 44 1009.1
20260505183549 30 316 12.9 29.0 0.00 0.00 0.00 46 1009.2
20260505183055 30 296 14.5 27.4 0.00 0.00 0.00 44 1009.4
20260505182549 30 300 11.3 27.4 0.00 0.00 0.00 47 1009.4
20260505182049 29 297 20.9 27.4 0.00 0.00 0.00 47 1009.4
20260505181636 29 304 16.1 29.0 0.00 0.00 0.00 49 1009.5
20260505181051 29 269 8.0 29.0 0.00 0.00 0.00 48 1009.6
20260505180550 29 313 12.9 29.0 0.00 0.00 0.00 48 1009.6
20260505175549 29 152 9.7 22.5 0.00 0.00 0.00 53 1009.5
20260505175047 28 232 9.7 22.5 0.00 0.00 0.00 53 1009.7
20260505174552 28 312 6.4 19.3 0.00 0.00 0.00 55 1009.9
20260505174047 28 268 8.0 19.3 0.00 0.00 0.00 55 1009.9
20260505173548 28 286 8.0 17.7 0.00 0.00 0.00 56 1010.0
20260505173058 28 261 8.0 22.5 0.00 0.00 0.00 54 1010.0
20260505172547 28 279 9.7 22.5 0.00 0.00 0.00 56 1010.0
20260505172049 27 225 8.0 27.4 0.00 0.00 0.00 58 1010.0
20260505171601 27 225 11.3 27.4 0.00 0.00 0.00 58 1009.9
20260505171050 27 254 11.3 27.4 0.00 0.00 0.00 60 1010.0
20260505170549 27 240 8.0 29.0 0.00 0.00 0.00 60 1009.9
20260505170100 27 242 19.3 29.0 0.00 0.00 0.00 62 1010.0
20260505165549 27 223 16.1 24.1 0.00 0.00 0.00 63 1010.0
20260505165046 27 236 8.0 24.1 0.00 0.00 0.00 62 1010.0
20260505164557 26 209 14.5 22.5 0.00 0.00 0.00 64 1010.0
20260505164046 26 248 9.7 24.1 0.00 0.00 0.00 65 1010.0
20260505163546 26 284 16.1 27.4 0.00 0.00 0.00 67 1010.0
20260505163053 26 225 12.9 29.0 0.00 0.00 0.00 65 1009.9
20260505162548 26 220 12.9 29.0 0.00 0.00 0.00 66 1009.8
20260505162048 26 237 14.5 29.0 0.00 0.00 0.00 68 1009.8
20260505161553 25 241 16.1 33.8 0.00 0.00 0.00 67 1009.7
20260505161049 25 224 16.1 35.4 0.00 0.00 0.00 68 1009.8
20260505160549 25 243 22.5 35.4 0.00 0.00 0.00 70 1009.8
20260505153057 24 227 24.1 33.8 0.00 0.00 0.00 75 1009.4
20260505152549 23 240 24.1 33.8 0.00 0.00 0.00 75 1009.4
20260505152049 23 216 24.1 37.0 0.00 0.00 0.00 76 1009.4
20260505151559 23 360 29.0 37.0 0.00 0.00 0.00 76 1009.5
20260505151054 23 360 24.1 33.8 0.00 0.00 0.00 77 1009.4
20260505150549 23 360 22.5 33.8 0.00 0.00 0.00 78 1009.4
20260505140548 21 267 16.1 30.6 0.00 0.00 0.00 83 1009.5
20260505124557 19 360 19.3 29.0 0.00 0.00 0.00 87 1008.8
20260505124049 19 360 19.3 29.0 0.00 0.00 0.00 87 1008.7
20260505123549 19 360 20.9 29.0 0.00 0.00 0.00 87 1008.7
20260505123057 19 360 19.3 27.4 0.00 0.00 0.00 87 1008.7
20260505122547 19 360 17.7 25.7 0.00 0.00 0.00 87 1008.6
20260505122048 18 360 17.7 25.7 0.00 0.00 0.00 88 1008.5
20260505121553 18 360 17.7 25.7 0.00 0.00 0.00 88 1008.5
20260505121047 18 360 19.3 25.7 0.00 0.00 0.00 88 1008.4
20260505120550 18 360 19.3 24.1 0.00 0.00 0.00 88 1008.4
20260505120110 18 360 17.7 25.7 0.00 0.00 0.00 87 1008.3
20260505115545 18 360 17.7 25.7 0.00 0.00 0.00 87 1008.2
20260505115045 18 360 17.7 22.5 0.00 0.00 0.00 87 1008.3